{"data":{"norad_id":65064,"intl_designator":"2025-165J","name":"STARLINK-34793","alt_names":[],"object_type":"PAYLOAD","status":"ACTIVE","operator":null,"country":"US","launch_date":"2025-07-31","launch_site_code":"AFWTR","launch_vehicle":null,"mission":null,"orbit_class":"UNKNOWN","rcs_meters":null,"size_class":null,"mass_kg":null,"dimensions":null,"purposes":["comms"],"wikipedia_slug":null,"has_3d_model":false,"image_url":null,"decayed_at":null,"tle_current":{"epoch":"2026-09-20T22:18:09.857664Z","epoch_age_seconds":83151,"freshness":"FRESH","line1":"1 65064U 25165J   26263.92928076  .00008350  00000+0  26065-3 0  9999","line2":"2 65064  97.2864 335.1789 0002630  83.4016 276.7526 15.33447995 64193","mean_motion":15.33447995,"eccentricity":0.000263,"inclination_deg":97.2864,"raan_deg":335.1789,"arg_perigee_deg":83.4016,"mean_anomaly_deg":276.7526,"bstar":0.00026065,"rev_number":6419,"period_min":93.906021247235,"perigee_km":463.7343779375,"apogee_km":467.33414902209,"semimajor_km":6843.6712634798,"source":"CELESTRAK","updated_at":"2026-09-21T09:00:35.499450Z"}}}